Meteo Giornale » Osservazioni meteo Brasile » Manaus Aeroporto
ore: 17:00 - Osservazioni Meteo Manaus Aeroporto
Lat. 3° 9' S Lon. 59° 59' W Alt. 84 metri s.l.m.
36 °C
Poco Nuvoloso
Temp. 24 Ore
28 °C
37 °C
Nord
5.5 Km/h
Dew point 20 °C
Umidità 39 %
Visibilità 10 Km
Il sole sorge alle ore 05:58
Il sole tramonta alle ore 18:01
| Data e Ora | Cielo e Fenomeni | T °C | DP °C | Um. % | Pres. hPa | Vis. km | Vento km/h | |
|---|---|---|---|---|---|---|---|---|
| Oggi h: 17:00 | Poco Nuvoloso | 36 | 20 | 39 | 1008 | 10 | N 5.5 | |
| Oggi h: 16:00 | Nuvoloso | 37 | 21 | 39 | 1008 | 10 | E 7.4 | |
| Oggi h: 15:00 | Nuvoloso | 37 | 20 | 37 | 1009 | 10 | N 5.5 | |
| Oggi h: 14:00 | Poco Nuvoloso | 37 | 21 | 39 | 1009 | 10 | E/SE 7.4 | |
| Oggi h: 13:00 | Poco Nuvoloso | 37 | 22 | 42 | 1011 | 10 | N 7.4 | |
| Oggi h: 12:00 | Poco Nuvoloso | 37 | 22 | 42 | 1012 | 10 | N 7.4 | |
| Oggi h: 11:00 | Poco Nuvoloso | 35 | 21 | 44 | 1012 | 10 | E 14.8 | |
| Oggi h: 10:00 | Sereno | 34 | 22 | 49 | 1013 | 10 | E/NE 9.3 | |
| Oggi h: 09:00 | Sereno | 33 | 21 | 49 | 1012 | 10 | E/NE 16.7 | |
| Oggi h: 08:00 | Sereno | 31 | 21 | 55 | 1012 | 10 | NE 9.3 | |
| Oggi h: 07:00 | Sereno | 29 | 21 | 62 | 1011 | 10 | NE 13 | |
| Oggi h: 06:00 | Sereno | 28 | 21 | 65 | 1010 | 10 | N 5.5 | |
| Oggi h: 05:00 | Sereno | 28 | 21 | 65 | 1010 | 10 | N/NE 7.4 | |
| Oggi h: 04:00 | Sereno | 28 | 21 | 65 | 1010 | 10 | N 3.7 | |
| Oggi h: 03:00 | Sereno | 30 | 23 | 66 | 1010 | 10 | N 5.5 | |
| Oggi h: 02:00 | Sereno | 30 | 23 | 66 | 1010 | 10 | E/NE 7.4 | |
| Oggi h: 01:00 | Sereno | 30 | 23 | 66 | 1011 | 10 | E 9.3 | |
| Oggi h: 00:00 | Sereno | 29 | 24 | 74 | 1011 | 10 | E 7.4 | |
| Ieri h: 23:00 | Sereno | 30 | 23 | 66 | 1011 | 10 | N 5.5 | |
| Ieri h: 22:00 | Sereno | 30 | 22 | 62 | 1011 | 10 | E/NE 7.4 | |
| Ieri h: 21:00 | Sereno | 31 | 21 | 55 | 1010 | 10 | E/NE 9.3 | |
| Ieri h: 20:00 | Sereno | 31 | 22 | 58 | 1010 | 10 | E 7.4 | |
| Ieri h: 19:00 | Sereno | 31 | 21 | 55 | 1009 | 10 | N 5.5 | |
| Ieri h: 18:00 | Sereno | 32 | 22 | 55 | 1009 | 10 | N 3.7 | |



